FW7029 Weather Reports


time (UTC)temp
F
wind
direction
speed
knots
gust
knots
rain 1hr
in
rain 24hr
in
rain mn
in
humidity
%
barometer
mb
20260906223630 87 15 5.2 7.8 0.00 0.00 0.00 38 1016.4
20260906223125 86 339 4.3 7.0 0.00 0.00 0.00 39 1016.4
20260906222623 86 43 4.3 6.1 0.00 0.00 0.00 39 1016.8
20260906222122 87 314 4.3 6.1 0.00 0.00 0.00 38 1016.6
20260906221620 86 346 1.7 1.7 0.00 0.00 0.00 40 1016.7
20260906221109 85 41 2.6 4.3 0.00 0.00 0.00 39 1016.7
20260906220604 86 4 6.1 7.8 0.00 0.00 0.00 39 1017.0
20260906220100 87 68 0.9 0.9 0.00 0.00 0.00 38 1016.8
20260906215559 86 19 2.6 4.3 0.00 0.00 0.00 39 1017.3
20260906215057 87 331 5.2 6.1 0.00 0.00 0.00 38 1017.2
20260906214555 87 106 0.9 0.9 0.00 0.00 0.00 38 1016.9
20260906214051 86 70 0.9 0.9 0.00 0.00 0.00 39 1017.0
20260906213550 85 267 3.5 4.3 0.00 0.00 0.00 40 1017.4
20260906213044 86 12 3.5 5.2 0.00 0.00 0.00 40 1017.2
20260906212538 87 51 1.7 2.6 0.00 0.00 0.00 39 1017.5
20260906212033 88 125 0.9 1.7 0.00 0.00 0.00 39 1017.6
20260906211527 86 265 1.7 1.7 0.00 0.00 0.00 38 1017.5
20260906211023 86 70 1.7 2.6 0.00 0.00 0.00 40 1017.5
20260906210518 85 74 2.6 4.3 0.00 0.00 0.00 40 1018.0
20260906210017 85 81 2.6 2.6 0.00 0.00 0.00 41 1018.2
20260906205514 85 126 1.7 4.3 0.00 0.00 0.00 40 1018.1
20260906205009 85 132 0.9 4.3 0.00 0.00 0.00 41 1018.2
20260906204508 85 68 1.7 1.7 0.00 0.00 0.00 40 1018.3
20260906204003 85 37 4.3 6.1 0.00 0.00 0.00 39 1018.2
20260906203457 85 47 3.5 5.2 0.00 0.00 0.00 39 1018.3
20260906202955 84 136 1.7 1.7 0.00 0.00 0.00 40 1018.5
20260906202454 84 16 0.9 0.9 0.00 0.00 0.00 38 1018.2
20260906201949 83 149 4.3 5.2 0.00 0.00 0.00 39 1018.3
20260906201438 84 146 4.3 6.1 0.00 0.00 0.00 38 1018.3
20260906200933 84 70 2.6 4.3 0.00 0.00 0.00 39 1018.6
20260906200429 85 38 5.2 7.8 0.00 0.00 0.00 40 1018.5
20260906195929 85 133 0.9 1.7 0.00 0.00 0.00 40 1018.6
20260906195426 85 142 0.9 0.9 0.00 0.00 0.00 40 1018.7
20260906194921 84 106 1.7 1.7 0.00 0.00 0.00 41 1018.5
20260906194417 84 108 4.3 5.2 0.00 0.00 0.00 41 1018.8
20260906193912 83 128 1.7 1.7 0.00 0.00 0.00 40 1018.8
20260906193407 82 73 2.6 4.3 0.00 0.00 0.00 41 1018.6
20260906192903 83 38 4.3 8.7 0.00 0.00 0.00 39 1018.7
20260906192402 82 20 3.5 7.0 0.00 0.00 0.00 43 1018.9
20260906191901 82 85 0.9 0.9 0.00 0.00 0.00 43 1018.9
20260906191356 82 63 2.6 2.6 0.00 0.00 0.00 44 1018.9
20260906190856 82 37 4.3 5.2 0.00 0.00 0.00 44 1019.0
20260906190355 82 107 0.0 0.0 0.00 0.00 0.00 44 1019.2
20260906185850 82 101 2.6 2.6 0.00 0.00 0.00 43 1019.2
20260906185349 81 137 0.9 1.7 0.00 0.00 0.00 42 1019.4
20260906184849 81 60 2.6 4.3 0.00 0.00 0.00 42 1019.6
20260906184344 81 122 0.9 1.7 0.00 0.00 0.00 42 1019.6
20260906183839 80 154 0.9 0.9 0.00 0.00 0.00 41 1019.5
20260906183335 80 65 0.9 0.9 0.00 0.00 0.00 41 1019.9
20260906182830 80 92 0.0 0.9 0.00 0.00 0.00 42 1020.0
20260906182325 80 81 0.9 1.7 0.00 0.00 0.00 43 1020.1
20260906181820 79 112 1.7 1.7 0.00 0.00 0.00 45 1020.3
20260906181316 78 58 0.9 0.9 0.00 0.00 0.00 47 1020.3
20260906180812 79 29 5.2 5.2 0.00 0.00 0.00 47 1020.2
20260906180307 79 70 2.6 2.6 0.00 0.00 0.00 47 1020.3
20260906175803 79 118 0.0 0.0 0.00 0.00 0.00 48 1020.5
20260906175300 79 77 0.9 0.9 0.00 0.00 0.00 48 1020.6
20260906174758 79 102 2.6 4.3 0.00 0.00 0.00 46 1020.5
20260906174258 79 104 0.0 0.0 0.00 0.00 0.00 45 1020.9
20260906173753 79 106 0.9 1.7 0.00 0.00 0.00 45 1020.9
20260906173249 78 148 0.9 0.9 0.00 0.00 0.00 47 1021.1
20260906172748 76 70 0.9 1.7 0.00 0.00 0.00 49 1020.9
20260906172243 77 55 2.6 2.6 0.00 0.00 0.00 49 1021.3
20260906171738 77 62 2.6 4.3 0.00 0.00 0.00 50 1021.3
20260906171233 78 22 0.9 0.9 0.00 0.00 0.00 51 1021.3
20260906170729 77 77 0.9 0.9 0.00 0.00 0.00 53 1021.4
20260906170224 76 76 0.0 0.0 0.00 0.00 0.00 55 1021.9
20260906165720 76 75 0.9 1.7 0.00 0.00 0.00 56 1021.4
20260906165215 75 110 0.9 0.9 0.00 0.00 0.00 56 1021.8
20260906164714 75 67 2.6 2.6 0.00 0.00 0.00 56 1021.6
20260906164204 75 105 0.0 0.9 0.00 0.00 0.00 56 1021.8
20260906163700 74 110 1.7 1.7 0.00 0.00 0.00 56 1021.8
20260906163156 75 70 3.5 4.3 0.00 0.00 0.00 57 1021.5
20260906162653 74 108 0.0 0.9 0.00 0.00 0.00 55 1021.5
20260906162152 74 80 1.7 1.7 0.00 0.00 0.00 57 1021.6
20260906161647 73 73 1.7 1.7 0.00 0.00 0.00 60 1021.3
20260906161146 72 343 1.7 1.7 0.00 0.00 0.00 62 1021.5
20260906160645 72 9 1.7 1.7 0.00 0.00 0.00 60 1021.5
20260906160144 72 64 0.9 1.7 0.00 0.00 0.00 61 1021.4
20260906155642 73 331 1.7 2.6 0.00 0.00 0.00 59 1021.4
20260906155138 72 116 0.0 1.7 0.00 0.00 0.00 60 1021.3
20260906154633 71 82 0.9 1.7 0.00 0.00 0.00 62 1021.4
20260906154133 71 50 0.9 1.7 0.00 0.00 0.00 64 1021.3
20260906153631 70 81 1.7 2.6 0.00 0.00 0.00 67 1021.4
20260906153127 70 61 1.7 1.7 0.00 0.00 0.00 67 1021.9
20260906152621 69 60 1.7 1.7 0.00 0.00 0.00 69 1021.5
20260906152121 69 15 1.7 1.7 0.00 0.00 0.00 70 1021.6
20260906151615 68 45 2.6 2.6 0.00 0.00 0.00 71 1021.3
20260906151112 68 337 3.5 5.2 0.00 0.00 0.00 71 1021.4
20260906150607 68 84 0.9 0.9 0.00 0.00 0.00 72 1021.6
20260906145601 70 311 4.3 6.1 0.00 0.00 0.00 69 1021.3
20260906145055 68 88 4.3 5.2 0.00 0.00 0.00 72 1021.5
20260906144544 67 86 0.9 1.7 0.00 0.00 0.00 74 1021.6
20260906144040 66 59 1.7 1.7 0.00 0.00 0.00 77 1021.8
20260906143534 66 41 0.9 1.7 0.00 0.00 0.00 77 1021.6
20260906143032 66 325 2.6 2.6 0.00 0.00 0.00 77 1021.8
20260906142530 66 39 4.3 6.1 0.00 0.00 0.00 76 1021.6
20260906142026 66 279 1.7 1.7 0.00 0.00 0.00 78 1021.6
20260906141525 65 10 2.6 2.6 0.00 0.00 0.00 79 1021.5
20260906141021 65 58 1.7 1.7 0.00 0.00 0.00 79 1021.6
20260906140514 65 85 0.9 1.7 0.00 0.00 0.00 78 1021.4
20260906140014 65 318 2.6 2.6 0.00 0.00 0.00 79 1021.9
20260906135511 65 1 2.6 4.3 0.00 0.00 0.00 78 1021.5
20260906135007 64 277 1.7 5.2 0.00 0.00 0.00 79 1021.5
20260906134502 63 87 0.9 1.7 0.00 0.00 0.00 80 1021.3
20260906134002 62 60 0.9 0.9 0.00 0.00 0.00 80 1021.5
20260906133458 61 73 0.9 0.9 0.00 0.00 0.00 81 1021.4
20260906132954 61 24 1.7 1.7 0.00 0.00 0.00 81 1021.3
20260906132449 60 52 0.9 0.9 0.00 0.00 0.00 80 1021.3
20260906131944 60 57 0.9 0.9 0.00 0.00 0.00 80 1021.4
20260906131439 60 289 1.7 1.7 0.00 0.00 0.00 80 1021.5
20260906130935 60 10 1.7 1.7 0.00 0.00 0.00 80 1021.3
20260906130434 60 28 0.9 1.7 0.00 0.00 0.00 80 1021.2
20260906125928 60 54 0.9 0.9 0.00 0.00 0.00 80 1021.3
20260906125426 60 63 0.9 1.7 0.00 0.00 0.00 80 1021.2
20260906124925 59 30 0.9 1.7 0.00 0.00 0.00 80 1021.2
20260906124421 59 64 0.9 0.9 0.00 0.00 0.00 80 1021.3
20260906123916 59 65 0.0 0.0 0.00 0.00 0.00 80 1021.3
20260906123415 59 59 0.9 0.9 0.00 0.00 0.00 80 1020.9
20260906122915 59 65 0.0 0.0 0.00 0.00 0.00 81 1021.3
20260906122410 59 64 0.0 0.0 0.00 0.00 0.00 81 1021.2
20260906121907 59 85 0.0 0.0 0.00 0.00 0.00 81 1021.2
20260906121403 59 80 0.0 0.9 0.00 0.00 0.00 81 1021.3
20260906120859 59 86 0.0 0.0 0.00 0.00 0.00 82 1021.1
20260906120354 59 65 0.0 0.0 0.00 0.00 0.00 82 1021.2
20260906115851 59 80 0.0 0.9 0.00 0.00 0.00 82 1021.2
20260906115346 59 72 0.9 0.9 0.00 0.00 0.00 82 1021.2
20260906114845 60 61 0.9 0.9 0.00 0.00 0.00 82 1020.9
20260906114340 60 113 0.0 0.0 0.00 0.00 0.00 82 1020.9
20260906113835 60 113 0.0 0.0 0.00 0.00 0.00 82 1020.9
20260906113334 60 113 0.0 0.9 0.00 0.00 0.00 81 1020.8
20260906112830 61 113 0.0 0.0 0.00 0.00 0.00 81 1021.2
20260906112326 61 61 0.9 0.9 0.00 0.00 0.00 81 1021.3
20260906111825 61 43 0.9 1.7 0.00 0.00 0.00 82 1020.7
20260906111320 61 15 2.6 2.6 0.00 0.00 0.00 82 1020.9
20260906110815 62 58 0.9 0.9 0.00 0.00 0.00 82 1020.7
20260906110311 62 9 1.7 1.7 0.00 0.00 0.00 81 1020.6
20260906105809 62 51 0.9 1.7 0.00 0.00 0.00 81 1020.8
20260906105306 62 32 1.7 1.7 0.00 0.00 0.00 80 1020.9
20260906104800 62 68 0.9 0.9 0.00 0.00 0.00 79 1020.7
20260906104254 62 8 2.6 2.6 0.00 0.00 0.00 78 1020.7
20260906103752 62 28 2.6 2.6 0.00 0.00 0.00 76 1020.7
20260906103251 62 16 2.6 2.6 0.00 0.00 0.00 75 1020.7
20260906102747 62 326 2.6 2.6 0.00 0.00 0.00 74 1020.7
20260906102246 62 58 1.7 1.7 0.00 0.00 0.00 73 1020.7
20260906101741 62 38 1.7 1.7 0.00 0.00 0.00 73 1020.8
20260906101236 63 55 0.9 0.9 0.00 0.00 0.00 71 1020.7
20260906100732 63 13 1.7 2.6 0.00 0.00 0.00 70 1020.8
20260906100231 63 61 1.7 2.6 0.00 0.00 0.00 68 1020.6
20260906095727 64 343 2.6 4.3 0.00 0.00 0.00 65 1020.7
20260906095222 64 30 1.7 2.6 0.00 0.00 0.00 65 1020.6
20260906094720 64 57 3.5 4.3 0.00 0.00 0.00 65 1020.8
20260906094210 65 20 2.6 2.6 0.00 0.00 0.00 65 1020.7
20260906093707 65 78 1.7 1.7 0.00 0.00 0.00 64 1020.9
20260906093202 65 64 0.9 1.7 0.00 0.00 0.00 62 1020.7
20260906092657 65 5 1.7 2.6 0.00 0.00 0.00 62 1020.5
20260906092156 65 70 1.7 1.7 0.00 0.00 0.00 62 1020.5
20260906091653 65 78 0.0 0.0 0.00 0.00 0.00 61 1020.7
20260906091149 65 84 0.0 0.0 0.00 0.00 0.00 60 1020.6
20260906090645 66 72 0.9 0.9 0.00 0.00 0.00 59 1020.5
20260906090144 66 70 0.9 0.9 0.00 0.00 0.00 58 1020.3
20260906085642 66 35 1.7 1.7 0.00 0.00 0.00 57 1020.6
20260906085137 66 66 0.0 0.9 0.00 0.00 0.00 56 1020.0
20260906084632 66 47 2.6 2.6 0.00 0.00 0.00 57 1020.5
20260906084131 67 76 0.0 0.0 0.00 0.00 0.00 56 1020.3
20260906083626 68 94 0.0 0.0 0.00 0.00 0.00 54 1020.3
20260906083121 68 94 0.0 0.0 0.00 0.00 0.00 53 1020.3
20260906082617 69 57 1.7 2.6 0.00 0.00 0.00 52 1020.5
20260906082112 69 49 1.7 1.7 0.00 0.00 0.00 51 1020.5
20260906081608 69 49 2.6 2.6 0.00 0.00 0.00 51 1020.1
20260906081103 69 86 0.9 1.7 0.00 0.00 0.00 51 1020.0
20260906080600 69 77 0.9 1.7 0.00 0.00 0.00 50 1020.0
20260906080055 69 56 0.9 0.9 0.00 0.00 0.00 50 1020.2
20260906075555 70 57 1.7 1.7 0.00 0.00 0.00 49 1020.2
20260906075049 70 75 1.7 1.7 0.00 0.00 0.00 49 1020.1
20260906074545 70 74 1.7 2.6 0.00 0.00 0.00 49 1020.0
20260906074043 70 45 2.6 2.6 0.00 0.00 0.00 49 1019.9
20260906073538 70 91 2.6 4.3 0.00 0.00 0.00 51 1020.2
20260906073034 71 51 3.5 4.3 0.00 0.00 0.00 51 1020.0
20260906072529 70 356 2.6 4.3 0.00 0.00 0.00 49 1019.9
20260906072025 68 6 2.6 2.6 0.00 0.00 0.00 51 1020.1
20260906071521 68 42 1.7 1.7 0.00 0.00 0.00 56 1020.0
20260906071010 70 315 1.7 1.7 0.00 0.00 0.00 56 1020.0
20260906070507 72 153 0.9 0.9 0.00 0.00 0.00 52 1019.9
20260906070002 72 74 0.9 1.7 0.00 0.00 0.00 47 1020.2
20260906065502 73 3 2.6 2.6 0.00 0.00 0.00 46 1020.1
20260906064957 72 42 2.6 4.3 0.00 0.00 0.00 46 1020.3
20260906064454 71 44 2.6 2.6 0.00 0.00 0.00 49 1020.2
20260906063954 70 353 2.6 2.6 0.00 0.00 0.00 52 1020.3
20260906063449 69 1 2.6 2.6 0.00 0.00 0.00 55 1020.3
20260906062943 69 30 1.7 1.7 0.00 0.00 0.00 56 1020.5
20260906062438 70 68 0.9 0.9 0.00 0.00 0.00 55 1020.6
20260906061933 70 59 0.9 0.9 0.00 0.00 0.00 54 1020.6
20260906061429 70 144 0.9 0.9 0.00 0.00 0.00 54 1020.5
20260906060924 70 127 0.0 0.0 0.00 0.00 0.00 54 1020.7
20260906060421 70 137 0.0 0.0 0.00 0.00 0.00 53 1020.6
20260906055917 70 77 0.0 0.0 0.00 0.00 0.00 54 1020.8
20260906055413 71 97 0.0 0.0 0.00 0.00 0.00 54 1020.5
20260906054908 71 149 0.0 0.9 0.00 0.00 0.00 53 1020.6
20260906054403 72 97 0.9 0.9 0.00 0.00 0.00 50 1020.3
20260906053859 73 86 1.7 1.7 0.00 0.00 0.00 50 1020.2
20260906053354 73 20 3.5 4.3 0.00 0.00 0.00 49 1020.3
20260906052850 73 11 4.3 6.1 0.00 0.00 0.00 48 1020.5
20260906052346 73 75 0.9 0.9 0.00 0.00 0.00 48 1020.7
20260906051843 73 295 1.7 1.7 0.00 0.00 0.00 47 1020.7
20260906051343 73 43 2.6 2.6 0.00 0.00 0.00 48 1020.9
20260906050838 73 85 0.0 0.0 0.00 0.00 0.00 49 1021.3
20260906050333 73 103 0.9 0.9 0.00 0.00 0.00 48 1021.1
20260906045832 74 120 1.7 1.7 0.00 0.00 0.00 45 1021.3
20260906045326 73 127 0.0 0.9 0.00 0.00 0.00 44 1021.4
20260906044823 73 88 0.9 1.7 0.00 0.00 0.00 44 1021.3
20260906044323 73 125 1.7 1.7 0.00 0.00 0.00 45 1021.3
20260906043819 74 134 1.7 1.7 0.00 0.00 0.00 44 1021.1
20260906043315 74 78 0.0 0.0 0.00 0.00 0.00 43 1020.7
20260906042814 73 72 0.9 0.9 0.00 0.00 0.00 43 1020.3
20260906042314 73 92 0.0 0.9 0.00 0.00 0.00 45 1020.1
20260906041809 73 77 0.0 0.9 0.00 0.00 0.00 46 1020.5
20260906041304 74 72 0.9 0.9 0.00 0.00 0.00 44 1020.3
20260906040759 75 70 0.9 1.7 0.00 0.00 0.00 42 1020.2
20260906040254 75 73 1.7 1.7 0.00 0.00 0.00 41 1020.2
20260906035750 74 62 0.9 1.7 0.00 0.00 0.00 43 1019.9
20260906035245 74 58 0.9 0.9 0.00 0.00 0.00 42 1020.0
20260906034740 74 77 0.9 0.9 0.00 0.00 0.00 41 1019.9
20260906034235 75 78 0.0 0.0 0.00 0.00 0.00 41 1019.8
20260906033731 75 72 0.9 0.9 0.00 0.00 0.00 41 1019.8
20260906033230 75 38 1.7 2.6 0.00 0.00 0.00 41 1019.9
20260906032727 74 84 2.6 4.3 0.00 0.00 0.00 41 1019.8
20260906032226 73 73 0.0 0.0 0.00 0.00 0.00 42 1019.5
20260906031722 73 99 0.0 0.9 0.00 0.00 0.00 41 1019.8
20260906031218 73 83 0.0 0.0 0.00 0.00 0.00 42 1019.6
20260906030717 74 98 0.0 0.0 0.00 0.00 0.00 42 1019.2
20260906030212 75 72 0.0 0.9 0.00 0.00 0.00 40 1019.3
20260906025711 75 78 0.0 0.0 0.00 0.00 0.00 40 1019.2
20260906025207 75 76 0.9 0.9 0.00 0.00 0.00 38 1018.9
20260906024705 76 91 0.0 0.0 0.00 0.00 0.00 39 1018.6
20260906024204 77 57 0.0 0.9 0.00 0.00 0.00 39 1018.9
20260906023701 78 73 0.9 0.9 0.00 0.00 0.00 38 1018.9
20260906023200 79 74 0.9 0.9 0.00 0.00 0.00 36 1018.6
20260906022655 80 70 1.7 1.7 0.00 0.00 0.00 34 1018.7
20260906022151 80 82 1.7 1.7 0.00 0.00 0.00 33 1018.7
20260906021647 80 52 1.7 1.7 0.00 0.00 0.00 33 1018.5
20260906021145 80 343 2.6 4.3 0.00 0.00 0.00 33 1018.5
20260906020640 80 314 3.5 4.3 0.00 0.00 0.00 33 1018.7
20260906020136 80 295 2.6 4.3 0.00 0.00 0.00 33 1018.6
20260906015630 80 306 3.5 4.3 0.00 0.00 0.00 34 1018.6
20260906015129 80 309 4.3 4.3 0.00 0.00 0.00 34 1018.8
20260906014629 80 25 4.3 5.2 0.00 0.00 0.00 34 1018.3
20260906014125 80 340 4.3 4.3 0.00 0.00 0.00 33 1018.5
20260906013620 80 320 2.6 4.3 0.00 0.00 0.00 34 1018.3
20260906013116 80 48 2.6 4.3 0.00 0.00 0.00 34 1018.6
20260906012610 80 336 0.9 1.7 0.00 0.00 0.00 34 1018.2
20260906012105 81 340 1.7 1.7 0.00 0.00 0.00 34 1018.2
20260906011601 81 17 2.6 2.6 0.00 0.00 0.00 33 1018.2
20260906011101 81 330 2.6 4.3 0.00 0.00 0.00 33 1018.5
20260906010556 81 301 4.3 6.1 0.00 0.00 0.00 33 1018.5
20260906010052 81 0 4.3 5.2 0.00 0.00 0.00 33 1018.3
20260906005551 82 339 4.3 6.1 0.00 0.00 0.00 32 1018.3
20260906005051 82 16 2.6 4.3 0.00 0.00 0.00 32 1018.3
20260906004550 83 63 2.6 2.6 0.00 0.00 0.00 32 1018.5
20260906004045 83 47 2.6 2.6 0.00 0.00 0.00 31 1018.1
20260906003540 84 12 1.7 1.7 0.00 0.00 0.00 31 1018.3
20260906003036 84 40 2.6 2.6 0.00 0.00 0.00 31 1018.2
20260906002531 84 50 2.6 2.6 0.00 0.00 0.00 31 1018.5
20260906002026 85 52 2.6 2.6 0.00 0.00 0.00 30 1018.2
20260906001521 85 81 1.7 2.6 0.00 0.00 0.00 30 1018.2
20260906001015 86 16 4.3 6.1 0.00 0.00 0.00 29 1018.5
20260906000512 86 24 3.5 4.3 0.00 0.00 0.00 28 1018.1
20260906000007 86 68 2.6 2.6 0.00 0.00 0.00 29 1018.2
20260905235506 86 70 0.9 0.9 0.00 0.00 0.00 30 1018.1
20260905235001 86 76 0.9 0.9 0.00 0.00 0.00 29 1018.1
20260905234456 87 60 0.9 0.9 0.00 0.00 0.00 29 1018.2
20260905233950 88 56 0.9 1.7 0.00 0.00 0.00 27 1018.1
20260905233446 88 80 0.0 0.0 0.00 0.00 0.00 25 1018.2
20260905232944 89 77 0.9 0.9 0.00 0.00 0.00 27 1018.1
20260905232441 88 70 0.0 0.9 0.00 0.00 0.00 27 1018.1
20260905231936 88 91 0.9 0.9 0.00 0.00 0.00 26 1018.2
20260905231431 88 124 0.0 0.9 0.00 0.00 0.00 29 1017.9
20260905230923 89 115 0.9 0.9 0.00 0.00 0.00 27 1018.0
20260905230420 91 133 2.6 2.6 0.00 0.00 0.00 26 1018.0
20260905225919 92 103 0.0 0.0 0.00 0.00 0.00 23 1018.0
20260905225414 91 116 0.9 0.9 0.00 0.00 0.00 26 1018.1
20260905224909 91 135 0.9 1.7 0.00 0.00 0.00 26 1017.9
20260905224405 90 98 0.0 0.0 0.00 0.00 0.00 27 1017.9